Location: Mahannah Oil Field
(37.4664°N, 96.6003°W)
Time: 01:03:15
(UTC+00:00)

A-11 Canister half - Pass Details

Date: 27 January 2021
Orbit: 1524 x 1684 km, 47.3° (Epoch: 25 February)

Event Time Altitude Azimuth Distance (km) Brightness Sun altitude
Rises 19:10:36 0° 222° (SW) 4,664 12.3 33.8°
Reaches altitude 10° 19:13:39 10° 220° (SW) 3,681 12.0 33.7°
Maximum altitude 19:22:47 67° 140° (SE) 1,642 10.0 33.4°
Drops below altitude 10° 19:32:04 10° 61° (ENE) 3,744 10.8 32.9°
Sets 19:35:11 0° 59° (ENE) 4,748 11.2 32.8°
